Regional Weather Roundup
Issued by NWS

Home | Current Version | Previous Version | Graphics & Text | Print | Product List | Glossary On
Versions: 1 2 3 4 5 6 7 8 9 10 11 12 13 14 15 16 17 18 19 20 21 22 23 24 25 26 27 28 29 30 31 32 33 34 35 36 37 38 39 40 41 42 43 44 45 46 47 48 49 50
685
ASUS43 KBIS 181610
RWRND

NORTH DAKOTA REGIONAL WEATHER ROUNDUP
NATIONAL WEATHER SERVICE BISMARCK ND
1000 AM CST MON DEC 18 2017

NOTE: "FAIR" INDICATES FEW OR NO CLOUDS BELOW 12,000 FEET WITH NO
SIGNIFICANT WEATHER AND/OR OBSTRUCTIONS TO VISIBILITY.


NDZ001>003-009>011-017-181700-
NORTHWEST NORTH DAKOTA

CITY           SKY/WX    TMP DP  RH WIND       PRES   REMARKS
WILLISTON      LGT SNOW  33  32  96 SW7       29.58S FOG
MINOT          CLOUDY    38  24  57 W13       29.53R
MINOT AFB      CLOUDY    36  25  62 W13       29.52R
$$

NDZ018>021-031>035-040>046-181700-
SOUTHWEST NORTH DAKOTA

CITY           SKY/WX    TMP DP  RH WIND       PRES   REMARKS
BISMARCK       LGT RAIN  37  31  78 CALM      29.62F
DICKINSON      FLURRIES  34  31  88 W16       29.60R
GARRISON         N/A     37  26  64 W16       29.56R
HETTINGER ARPT CLOUDY    35  22  58 W8        29.66S
$$

NDZ004>008-012>016-024-026-027-054-181700-
NORTHEAST NORTH DAKOTA

CITY           SKY/WX    TMP DP  RH WIND       PRES   REMARKS
GRAND FORKS    CLOUDY    32  28  85 S13       29.54F
GRND FRKS AFB  PTSUNNY   34  27  75 SW7       29.54S
DEVILS LAKE    CLOUDY    33  26  75 W12       29.53S
$$

NDZ022-023-025-028>030-036>039-047>053-181700-
SOUTHEAST NORTH DAKOTA

CITY           SKY/WX    TMP DP  RH WIND       PRES   REMARKS
FARGO          CLOUDY    32  27  81 S12       29.61F
JAMESTOWN      CLOUDY    36  26  67 W13       29.58F
$$





USA.gov is the U.S. government's official web portal to all federal, state and local government web resources and services.